Weather History for La Junta, CO

Change the Weather History Date:

Saturday, March 30, 2013

  Actual Average Record
Temperature  
Mean Temperature 56 °F 48 °F  
Max Temperature 73 °F 64 °F 86 °F (1946)
Min Temperature 38 °F 33 °F 5 °F (1987)
Degree Days  
Heating Degree Days 9 17  
Month to date heating degree days 662 633  
Since 1 July heating degree days 4438 4734  
Cooling Degree Days 0 0  
Month to date cooling degree days 0 0  
Year to date cooling degree days 0 0  
Growing Degree Days 6 (Base 50)    
Moisture  
Dew Point 30 °F    
Average Humidity 43    
Maximum Humidity 70    
Minimum Humidity 16    
Precipitation  
Precipitation T in 0.04 in 1.17 in (1953)
Month to date precipitation 0.24 0.78  
Year to date precipitation 0.35 1.43  
Sea Level Pressure  
Sea Level Pressure 29.97 in    
Wind  
Wind Speed 11 mph (NNE)    
Max Wind Speed 41 mph    
Max Gust Speed 51 mph    
Visibility 10 miles    
Events      
T = Trace of Precipitation, MM = Missing Value Source: NWS Daily Summary

Daily Weather History Graph

Daily Weather History Graph

Search for Another Location

Airport:

Trip Planner

Search our weather history database for the weather conditions in past years. The results will help you decide how hot, cold, wet, or windy it might be!

Date:

Astronomy

Mar. 30, 2013 Rise Set
Actual Time 6:41 AM MDT 7:15 PM MDT
Civil Twilight 6:15 AM MDT 7:42 PM MDT
Nautical Twilight 5:44 AM MDT 8:13 PM MDT
Astronomical Twilight 5:12 AM MDT 8:45 PM MDT
Moon 11:20 PM MDT (3/30) 8:42 AM MDT (3/30)
Length of Visible Light 13h 26m
Length of Day
12h 33m
Waning Gibbous, 86% of the Moon is Illuminated
Mar 30
Waning Gibbous
Apr 2
Last Quarter
Apr 10
New
Apr 18
First Quarter
Apr 25
Full

Hourly Weather History & Observations

Time (MDT) Temp. Windchill Dew Point Humidity Pressure Visibility Wind Dir Wind Speed Gust Speed Precip Events Conditions
12:53 AM 46.9 °F - 32.0 °F 56% 29.98 in 10.0 mi NW 6.9 mph - N/A   Partly Cloudy
1:53 AM 44.1 °F 38.1 °F 32.0 °F 63% 29.99 in 10.0 mi West 11.5 mph - N/A   Clear
2:53 AM 44.1 °F 37.7 °F 32.0 °F 63% 29.99 in 10.0 mi West 12.7 mph - N/A   Clear
3:53 AM 41.0 °F - 30.9 °F 67% 29.98 in 10.0 mi North - - N/A   Clear
4:53 AM 42.1 °F 34.9 °F 30.9 °F 65% 29.96 in 10.0 mi West 13.8 mph - N/A   Clear
5:53 AM 41.0 °F 33.5 °F 30.9 °F 67% 29.99 in 10.0 mi West 13.8 mph - N/A   Clear
6:53 AM 39.0 °F 33.4 °F 30.0 °F 70% 30.02 in 10.0 mi West 8.1 mph - N/A   Clear
7:53 AM 45.0 °F 40.6 °F 32.0 °F 60% 30.04 in 10.0 mi West 8.1 mph - N/A   Clear
8:53 AM 50.0 °F - 32.0 °F 50% 30.03 in 10.0 mi West 8.1 mph - N/A   Clear
9:53 AM 57.9 °F - 30.9 °F 36% 30.01 in 10.0 mi West 4.6 mph - N/A   Clear
10:53 AM 64.0 °F - 30.9 °F 29% 29.99 in 10.0 mi ENE 5.8 mph - N/A   Clear
11:53 AM 66.0 °F - 28.0 °F 24% 29.96 in 10.0 mi East 6.9 mph - N/A   Clear
12:53 PM 68.0 °F - 27.0 °F 21% 29.95 in 10.0 mi Variable 4.6 mph - N/A   Clear
1:53 PM 70.0 °F - 25.0 °F 18% 29.92 in 10.0 mi ENE 5.8 mph - N/A   Clear
2:53 PM 71.1 °F - 24.1 °F 17% 29.88 in 10.0 mi East 6.9 mph - N/A   Clear
3:53 PM 73.0 °F - 25.0 °F 17% 29.85 in 10.0 mi SE 11.5 mph - N/A   Clear
4:53 PM 70.0 °F - 23.0 °F 17% 29.85 in 10.0 mi ENE 4.6 mph - N/A   Scattered Clouds
5:53 PM 70.0 °F - 23.0 °F 17% 29.84 in 10.0 mi East 4.6 mph - N/A   Partly Cloudy
6:53 PM 66.0 °F - 25.0 °F 21% 29.86 in 10.0 mi East 10.4 mph - N/A   Partly Cloudy
7:53 PM 62.1 °F - 26.1 °F 25% 29.92 in 10.0 mi North 15.0 mph - N/A   Mostly Cloudy
8:08 PM 57.2 °F - 35.6 °F 44% 30.02 in 5.0 mi NNE 34.5 mph 50.6 mph N/A   Haze
8:53 PM 54.0 °F - 39.0 °F 57% 29.99 in 10.0 mi NNE 33.4 mph 41.4 mph N/A   Overcast
9:53 PM 53.1 °F - 37.9 °F 57% 30.01 in 10.0 mi NNE 27.6 mph 36.8 mph N/A   Partly Cloudy
10:53 PM 52.0 °F - 39.0 °F 61% 30.06 in 10.0 mi East 8.1 mph - N/A   Overcast
11:53 PM 52.0 °F - 37.9 °F 59% 30.08 in 10.0 mi NE 9.2 mph - N/A   Overcast